• In Hungary
  • List of Countries
  • For 7 days
  • Water Temperature
  • Satellite Maps
  • Weather Map
  • News
  • Weather Widgets
  • user-avatar
    Login

    Hourly Weather Mlynsko

    Today, 23 October, Tuesday

    Time Temperature Precipitation Wind Pressure Humidity
    00:00 +4°C° 0 mm 4 mps 751 mmHg 90%
    01:00 +3°C° 0 mm 4 mps 750 mmHg 92%
    02:00 +3°C° 0 mm 4 mps 750 mmHg 91%
    03:00 +3°C° 0 mm 4 mps 749 mmHg 91%
    04:00 +3°C° 0 mm 5 mps 748 mmHg 90%
    05:00 +3°C° 0.1 mm 5 mps 747 mmHg 87%
    06:00 +3°C° 0.1 mm 6 mps 746 mmHg 84%
    07:00 +3°C° 0 mm 7 mps 745 mmHg 82%
    08:00 +2°C° 1 mm 8 mps 743 mmHg 81%
    09:00 +2°C° 1 mm 9 mps 742 mmHg 80%
    10:00 +3°C° 1 mm 10 mps 740 mmHg 78%
    11:00 +3°C° 1.5 mm 10 mps 739 mmHg 79%
    12:00 +3°C° 1.5 mm 10 mps 737 mmHg 80%
    13:00 +3°C° 1.5 mm 10 mps 735 mmHg 80%
    14:00 +5°C° 1 mm 10 mps 734 mmHg 82%
    15:00 +5°C° 1 mm 9 mps 733 mmHg 84%
    16:00 +6°C° 1 mm 9 mps 732 mmHg 86%
    17:00 +6°C° 0.5 mm 8 mps 731 mmHg 84%
    18:00 +6°C° 0.5 mm 7 mps 730 mmHg 83%
    19:00 +6°C° 0.5 mm 7 mps 730 mmHg 82%
    20:00 +7°C° 0.3 mm 6 mps 730 mmHg 82%
    21:00 +5°C° 0.3 mm 6 mps 730 mmHg 81%
    22:00 +5°C° 0.3 mm 6 mps 729 mmHg 81%
    23:00 +5°C° 0.5 mm 6 mps 729 mmHg 81%

    Tomorrow, 24 October, Wednesday

    Time Temperature Precipitation Wind Pressure Humidity
    00:00 +5°C° 0.5 mm 6 mps 729 mmHg 81%
    01:00 +4°C° 0.5 mm 6 mps 729 mmHg 81%
    02:00 +4°C° 0.4 mm 6 mps 729 mmHg 81%
    03:00 +4°C° 0.4 mm 6 mps 729 mmHg 80%
    04:00 +4°C° 0.4 mm 7 mps 729 mmHg 80%
    05:00 +3°C° 0.2 mm 7 mps 730 mmHg 76%
    06:00 +2°C° 0.2 mm 8 mps 730 mmHg 72%
    07:00 +2°C° 0.2 mm 8 mps 731 mmHg 69%
    08:00 +2°C° 0.1 mm 9 mps 731 mmHg 67%
    09:00 +3°C° 0.1 mm 10 mps 732 mmHg 66%
    10:00 +3°C° 0.1 mm 11 mps 732 mmHg 65%
    11:00 +3°C° 0.2 mm 12 mps 733 mmHg 66%
    12:00 +3°C° 0.2 mm 12 mps 733 mmHg 67%
    13:00 +4°C° 0.2 mm 12 mps 733 mmHg 69%
    14:00 +4°C° 0.2 mm 12 mps 734 mmHg 69%
    15:00 +4°C° 0.2 mm 11 mps 735 mmHg 69%
    16:00 +4°C° 0.2 mm 11 mps 736 mmHg 69%
    17:00 +3°C° 0.2 mm 10 mps 737 mmHg 69%
    18:00 +3°C° 0.2 mm 10 mps 738 mmHg 70%
    19:00 +3°C° 0.2 mm 9 mps 739 mmHg 70%
    20:00 +4°C° 0 mm 8 mps 739 mmHg 71%
    21:00 +2°C° 0 mm 8 mps 740 mmHg 72%
    22:00 +3°C° 0 mm 7 mps 740 mmHg 74%
    23:00 +3°C° 0 mm 6 mps 741 mmHg 76%

    Day after tomorrow, 25 October, Thursday

    Time Temperature Precipitation Wind Pressure Humidity
    00:00 +3°C° 0 mm 6 mps 741 mmHg 77%
    01:00 +2°C° 0 mm 5 mps 741 mmHg 79%
    02:00 +2°C° 0 mm 5 mps 741 mmHg 79%
    03:00 +2°C° 0 mm 5 mps 740 mmHg 78%
    04:00 +3°C° 0 mm 4 mps 740 mmHg 78%
    05:00 +1°C° 0 mm 4 mps 740 mmHg 79%
    06:00 +1°C° 0 mm 4 mps 739 mmHg 80%
    07:00 +1°C° 0 mm 4 mps 739 mmHg 81%
    08:00 +1°C° 0.6 mm 4 mps 738 mmHg 83%
    09:00 +2°C° 0.6 mm 5 mps 737 mmHg 84%
    10:00 +2°C° 0.6 mm 5 mps 736 mmHg 86%
    11:00 +4°C° 0.4 mm 6 mps 735 mmHg 84%
    12:00 +5°C° 0.4 mm 6 mps 735 mmHg 82%
    13:00 +8°C° 0.4 mm 7 mps 734 mmHg 81%
    14:00 +8°C° 0.2 mm 7 mps 734 mmHg 79%
    15:00 +6°C° 0.2 mm 7 mps 734 mmHg 77%
    16:00 +6°C° 0.2 mm 7 mps 734 mmHg 75%
    17:00 +7°C° 0.1 mm 6 mps 735 mmHg 78%
    18:00 +6°C° 0.1 mm 5 mps 735 mmHg 81%
    19:00 +6°C° 0.1 mm 5 mps 736 mmHg 84%
    20:00 +5°C° 0 mm 5 mps 736 mmHg 85%
    21:00 +5°C° 0 mm 5 mps 737 mmHg 85%
    22:00 +5°C° 0 mm 5 mps 737 mmHg 86%
    23:00 +5°C° 0 mm 5 mps 737 mmHg 86%

    26 October, Friday

    Time Temperature Precipitation Wind Pressure Humidity
    00:00 +5°C° 0 mm 5 mps 737 mmHg 86%
    01:00 +5°C° 0 mm 5 mps 737 mmHg 86%
    02:00 +5°C° 0 mm 5 mps 738 mmHg 88%
    03:00 +3°C° 0 mm 5 mps 738 mmHg 89%
    04:00 +3°C° 0 mm 5 mps 738 mmHg 91%
    05:00 +4°C° 0 mm 4 mps 738 mmHg 92%
    06:00 +4°C° 0 mm 4 mps 739 mmHg 93%
    07:00 +3°C° 0 mm 4 mps 739 mmHg 94%
    08:00 +5°C° 0 mm 4 mps 739 mmHg 89%
    09:00 +6°C° 0 mm 4 mps 739 mmHg 84%
    10:00 +7°C° 0 mm 5 mps 739 mmHg 79%
    11:00 +8°C° 0 mm 5 mps 739 mmHg 75%
    12:00 +8°C° 0 mm 5 mps 738 mmHg 70%
    13:00 +9°C° 0 mm 5 mps 738 mmHg 66%
    14:00 +8°C° 0 mm 5 mps 738 mmHg 69%
    15:00 +7°C° 0 mm 5 mps 737 mmHg 72%
    16:00 +7°C° 0 mm 4 mps 737 mmHg 75%
    17:00 +7°C° 0.1 mm 5 mps 736 mmHg 79%
    18:00 +8°C° 0.1 mm 5 mps 735 mmHg 83%
    19:00 +8°C° 0.1 mm 6 mps 735 mmHg 86%
    20:00 +8°C° 0.2 mm 6 mps 734 mmHg 84%
    21:00 +8°C° 0.2 mm 7 mps 734 mmHg 82%
    22:00 +8°C° 0.2 mm 7 mps 734 mmHg 79%
    23:00 +6°C° 0.1 mm 7 mps 733 mmHg 78%

    27 October, Saturday

    Time Temperature Precipitation Wind Pressure Humidity
    00:00 +6°C° 0.1 mm 8 mps 733 mmHg 77%
    01:00 +6°C° 0.1 mm 9 mps 733 mmHg 75%
    02:00 +5°C° 0.1 mm 9 mps 733 mmHg 75%
    03:00 +5°C° 0.1 mm 8 mps 733 mmHg 74%
    04:00 +4°C° 0.1 mm 8 mps 733 mmHg 74%
    05:00 +3°C° 0 mm 9 mps 733 mmHg 72%
    06:00 +3°C° 0 mm 9 mps 734 mmHg 71%
    07:00 +3°C° 0 mm 9 mps 734 mmHg 69%
    08:00 +3°C° 0 mm 10 mps 734 mmHg 67%
    09:00 +3°C° 0 mm 10 mps 735 mmHg 65%
    10:00 +4°C° 0 mm 11 mps 735 mmHg 63%
    11:00 +5°C° 0 mm 10 mps 736 mmHg 62%
    12:00 +5°C° 0 mm 9 mps 737 mmHg 62%
    13:00 +6°C° 0 mm 9 mps 738 mmHg 61%
    14:00 +5°C° 0.1 mm 7 mps 739 mmHg 64%
    15:00 +5°C° 0.1 mm 6 mps 739 mmHg 67%
    16:00 +5°C° 0.1 mm 5 mps 740 mmHg 70%
    17:00 +5°C° 0.2 mm 4 mps 741 mmHg 73%
    18:00 +5°C° 0.2 mm 4 mps 742 mmHg 76%
    19:00 +4°C° 0.2 mm 3 mps 742 mmHg 79%
    20:00 +4°C° 0.1 mm 3 mps 743 mmHg 82%
    21:00 +4°C° 0.1 mm 2 mps 743 mmHg 85%
    22:00 +4°C° 0.1 mm 2 mps 744 mmHg 87%
    23:00 +3°C° 0 mm 2 mps 744 mmHg 89%

    28 October, Sunday

    Time Temperature Precipitation Wind Pressure Humidity
    00:00 +3°C° 0 mm 2 mps 744 mmHg 90%
    01:00 +4°C° 0 mm 1 mps 745 mmHg 92%
    02:00 +4°C° 0 mm 1 mps 745 mmHg 92%
    03:00 +3°C° 0 mm 1 mps 745 mmHg 92%
    04:00 +3°C° 0 mm 1 mps 746 mmHg 92%
    05:00 +3°C° 0 mm 1 mps 746 mmHg 92%
    06:00 +3°C° 0 mm 1 mps 746 mmHg 91%
    07:00 +3°C° 0 mm 1 mps 747 mmHg 91%
    08:00 +4°C° 0 mm 1 mps 747 mmHg 86%
    09:00 +4°C° 0 mm 2 mps 747 mmHg 80%
    10:00 +5°C° 0 mm 2 mps 748 mmHg 74%
    11:00 +6°C° 0 mm 2 mps 748 mmHg 72%
    12:00 +5°C° 0 mm 3 mps 748 mmHg 70%
    13:00 +7°C° 0 mm 3 mps 748 mmHg 68%
    14:00 +5°C° 0 mm 3 mps 748 mmHg 70%
    15:00 +5°C° 0 mm 3 mps 748 mmHg 73%
    16:00 +4°C° 0 mm 3 mps 747 mmHg 76%
    17:00 +4°C° 0.2 mm 4 mps 748 mmHg 76%
    18:00 +4°C° 0.2 mm 4 mps 748 mmHg 77%
    19:00 +3°C° 0.2 mm 5 mps 748 mmHg 78%
    20:00 +2°C° 0.1 mm 5 mps 748 mmHg 77%
    21:00 +2°C° 0.1 mm 5 mps 748 mmHg 76%
    22:00 +2°C° 0.1 mm 6 mps 748 mmHg 76%
    23:00 +2°C° 0.1 mm 6 mps 747 mmHg 76%

    29 October, Monday

    Time Temperature Precipitation Wind Pressure Humidity
    00:00 +2°C° 0.1 mm 7 mps 747 mmHg 75%
    01:00 +2°C° 0.1 mm 7 mps 747 mmHg 75%
    02:00 +2°C° 1 mm 7 mps 746 mmHg 77%
    03:00 0°C° 1 mm 7 mps 746 mmHg 79%
    04:00 0°C° 1 mm 8 mps 746 mmHg 81%
    05:00 0°C° 1.1 mm 8 mps 745 mmHg 83%
    06:00 0°C° 1.1 mm 8 mps 745 mmHg 85%
    07:00 -1°C° 1.1 mm 9 mps 744 mmHg 87%
    08:00 -1°C° 1.6 mm 9 mps 744 mmHg 88%
    09:00 -1°C° 1.6 mm 8 mps 744 mmHg 89%
    10:00 -1°C° 1.6 mm 8 mps 744 mmHg 90%
    11:00 -1°C° 1.2 mm 8 mps 743 mmHg 91%
    12:00 -1°C° 1.2 mm 8 mps 743 mmHg 92%
    13:00 -1°C° 1.2 mm 8 mps 742 mmHg 92%
    14:00 -1°C° 1.1 mm 8 mps 742 mmHg 93%
    15:00 -1°C° 1.1 mm 8 mps 742 mmHg 93%
    16:00 -1°C° 1.1 mm 7 mps 741 mmHg 93%
    17:00 -1°C° 0.8 mm 7 mps 741 mmHg 94%
    18:00 -1°C° 0.8 mm 7 mps 741 mmHg 94%
    19:00 -1°C° 0.8 mm 6 mps 741 mmHg 95%
    20:00 -1°C° 0.6 mm 6 mps 741 mmHg 95%
    21:00 -1°C° 0.6 mm 6 mps 741 mmHg 96%
    22:00 0°C° 0.6 mm 5 mps 740 mmHg 96%
    23:00 0°C° 0.1 mm 5 mps 740 mmHg 97%
    Show more